Home   Weather   Alert   Past weeks

Flag for Canada Past Weather in Alert, Nunavut, Canada — Yesterday and Last 2 Weeks

Now
18 °F

Passing clouds.


Feels Like: 12 °F
Forecast: N/A
Wind: 3 mph from Southwest

Location: Alert Airport

Current Time: Sep 27, 2016 at 6:32:06 PM

Latest Report: Sep 27, 2016 at 6:00 PM


Visibility: 10 mi

Pressure: 30.02 "Hg

Humidity: 93%

Dew Point: 16 °F

Location of AlertLocation

Past Weather in Alert — Graph

°F

Alert Temperature Yesterday

Maximum temperature yesterday: 36 °F (at 4:00 AM)
Minimum temperature yesterday: 27 °F (at 10:00 PM)
Average temperature yesterday: 32 °F

High & Low Weather Summary for the Past Weeks

 TemperatureHumidityPressure
High37 °F (Sep 24, 11:00 AM)100% (Sep 13, 7:00 AM)30.03 "Hg (Sep 13, 7:00 AM)
Low5 °F (Sep 14, 5:00 AM)51% (Sep 15, 1:00 PM)29.46 "Hg (Sep 16, 8:00 AM)
Average25 °F79%29.68 "Hg
* Reported Sep 13 2:00 AM — Sep 27 5:00 PM, Alert, Weather by CustomWeather, © 2016

Note: Actual official high and low records may vary slightly from our data, if they occured in-between our weather recording intervals... More about our weather records

Advertising

Alert Weather History for the Previous 24 Hours

Scroll right to see more
 ConditionsComfort  
Time TempWeatherWind HumidityBarometerVisibility
5:00 PM
Tue, Sep 27
19 °FPartly sunny.2 mph86%30.02 "Hg8 mi
4:00 PM19 °FPartly sunny.6 mph86%30.03 "Hg8 mi
3:00 PM19 °FPartly sunny.6 mph93%30.02 "Hg8 mi
2:00 PM19 °FPartly sunny.9 mph93%30.02 "Hg8 mi
1:00 PM19 °FBroken clouds.12 mph93%30.01 "Hg7 mi
12:00 PM19 °FLight snow. Ice fog.6 mph86%30.01 "Hg5 mi
11:00 AM18 °FLight snow. Ice fog.8 mph93%30.01 "Hg5 mi
10:00 AM19 °FLight snow. Ice fog.12 mph86%30.00 "Hg2 mi
9:46 AM19 °FLight snow. Ice fog.14 mph86%30.00 "Hg1 mi
9:00 AM19 °FLight snow. Ice fog.14 mph93%29.99 "Hg1 mi
8:00 AM19 °FLight snow. Ice fog.15 mph93%29.98 "Hg1 mi
7:00 AM21 °FLight snow. Ice fog.14 mph86%29.96 "Hg1 mi
6:00 AM21 °FLight snow. Ice fog.14 mph86%29.95 "Hg1 mi
5:00 AM21 °FLight snow. Ice fog.16 mph93%29.93 "Hg1 mi
4:00 AM23 °FLight snow. Ice fog.15 mph93%29.91 "Hg1 mi
3:00 AM23 °FLight snow. Ice fog.21 mph93%29.89 "Hg1 mi
2:00 AM23 °FLight snow. Ice fog.17 mph93%29.86 "Hg1 mi
1:00 AM25 °FLight snow. Ice fog.16 mph93%29.84 "Hg1 mi
12:00 AM25 °FLight snow. Ice fog.14 mph93%29.82 "Hg1 mi
11:00 PM
Mon, Sep 26
27 °FLight snow. Ice fog.10 mph93%29.81 "Hg1 mi
10:00 PM27 °FLight snow. Overcast.7 mph100%29.80 "Hg1 mi
9:00 PM28 °FLight snow. Overcast.13 mph93%29.77 "Hg2 mi
8:00 PM30 °FLight snow. Overcast.10 mph93%29.75 "Hg4 mi
7:00 PM32 °FLight snow. Mostly cloudy.5 mph93%29.72 "Hg2 mi
6:00 PM28 °FLight snow. Ice fog.5 mph100%29.71 "Hg1 mi
Weather by CustomWeather, © 2016

See weather overviewHow to use our weather pages